Regional Weather Roundup
Issued by NWS

Home | Current Version | Previous Version | Text Only | Print | Product List | Glossary Off
Versions: 1 2 3 4 5 6 7 8 9 10 11 12 13 14 15 16 17 18 19 20 21 22 23 24 25 26 27 28 29 30 31 32 33 34 35 36 37 38 39 40 41 42 43 44 45 46 47 48 49 50

000
ASUS43 KMKX 051421
RWRWI

WISCONSIN REGIONAL WEATHER ROUNDUP
NATIONAL WEATHER SERVICE MILWAUKEE/SULLIVAN WI
900 AM CDT THU MAY 05 2016

NOTE: "FAIR" INDICATES FEW OR NO CLOUDS BELOW 12,000 FEET WITH NO
SIGNIFICANT WEATHER AND/OR OBSTRUCTIONS TO VISIBILITY.

WIZ001-002-006>008-014>016-023>028-051500-
NORTHWEST WISCONSIN

CITY           SKY/WX    TMP DP  RH WIND       PRES   REMARKS
SUPERIOR ARPT  CLOUDY    44  40  85 SW5       30.04R
ASHLAND        CLOUDY    50  36  58 VRB6      30.04S
HAYWARD        PTSUNNY   49  30  48 VRB5      30.06R
SIREN          CLOUDY    45  39  81 S5        30.06R
CUMBERLAND     SUNNY     52  32  46 SW10      30.05F
RICE LAKE      MOSUNNY   50  35  56 CALM      30.07F
CHETEK         MOSUNNY   51  34  51 SW7       30.07S
LADYSMITH      MOSUNNY   48  36  62 S3        30.08S
EAU CLAIRE     SUNNY     49  34  56 SW5       30.07S
MENOMONIE      SUNNY     54  37  53 CALM      30.08S
NEW RICHMOND   CLOUDY    49  33  55 S5        30.07F
OSCEOLA        CLOUDY    50  37  60 SW5       30.09F
$$

WIZ003>005-009-010-017-018-051500-
NORTH CENTRAL WISCONSIN

CITY           SKY/WX    TMP DP  RH WIND       PRES   REMARKS
MANITOWISH WTR CLOUDY    47  34  59 W3        30.04S
ARBOR VITAE    SUNNY     49  36  59 CALM      30.03S
WOODRUFF       SUNNY     49  36  59 CALM      30.03S
RHINELANDER    SUNNY     47  33  58 CALM      30.04S
EAGLE RIVER    SUNNY     46  32  59 CALM      30.03S
LAND O LAKES   SUNNY     47  34  60 CALM      30.03S
PHILLIPS       CLOUDY    44  35  68 CALM      30.05R
TOMAHAWK       SUNNY     45  34  65 CALM      30.05S
MEDFORD        SUNNY     45  36  70 W3        30.06R
MERRILL        SUNNY    N/A N/A N/A CALM      30.05F
$$

WIZ029-030-035-036-043>047-051500-
CENTRAL WISCONSIN

CITY           SKY/WX    TMP DP  RH WIND       PRES   REMARKS
WAUSAU         SUNNY     48  34  58 VRB5      30.04S
MOSINEE        SUNNY     45  36  70 N3        30.07R
MARSHFIELD     SUNNY     49  34  56 VRB3      30.05R
STEVENS POINT  SUNNY     44  33  64 NW7       30.06R
WAUPACA        SUNNY     47  34  59 NE3       30.06R
WAUTOMA        SUNNY     46  33  60 VRB3      30.07R
WISC RAPIDS    SUNNY     48  33  56 CALM      30.08R
CAMP DOUGLAS   MOSUNNY   48  41  76 N5        30.07R
$$

WIZ011>013-019>022-031-037>040-048>050-051500-
NORTHEAST WISCONSIN

CITY           SKY/WX    TMP DP  RH WIND       PRES   REMARKS
ANTIGO         SUNNY     44  35  71 CALM      30.05R
SHAWANO        SUNNY     47  34  60 E3        30.05S
OCONTO         SUNNY     45  34  66 NE5       30.04S
STURGEON BAY   SUNNY     43  36  75 N8        30.06R
GREEN BAY      SUNNY     47  35  63 N8        30.04S
MANITOWOC      SUNNY     47  36  65 N9G21     30.04R
APPLETON       SUNNY     45  32  61 N7        30.03R
CLINTONVILLE   SUNNY     45  32  61 N3        30.05R
OSHKOSH        SUNNY     47  34  60 N7        30.04R
$$

WIZ032>034-041-042-053>061-051500-
SOUTHWEST WISCONSIN

CITY           SKY/WX    TMP DP  RH WIND       PRES   REMARKS
LA CROSSE      SUNNY     50  35  56 NW5       30.09R
SPARTA         SUNNY     48  35  61 CALM      30.09R
VIROQUA        SUNNY     47  35  61 N5        30.07R
BOSCOBEL       SUNNY     50  34  54 NE6       30.08R
PRAIRIE DU CHI SUNNY     50  33  51 N3        30.08R
PLATTEVILLE    SUNNY     47  37  68 N8        30.06R
$$

WIZ056-057-062-063-064-067-068-051500-
SOUTH CENTRAL WISCONSIN

CITY           SKY/WX    TMP DP  RH WIND       PRES   REMARKS
REEDSBURG      SUNNY     45  33  62 NE5       30.07R
BARABOO/DELLS  SUNNY     46  32  58 N5        30.07R
LONE ROCK      SUNNY     49  35  58 NW5       30.08R
MINERAL POINT  SUNNY     48  36  61 N5        30.06R
MADISON        SUNNY     46  35  65 N10       30.05R
MIDDLETON      SUNNY     47  36  65 N8        30.06R
WATERTOWN      SUNNY     46  37  72 N7        30.03R
MONROE         SUNNY     45  36  70 N7        30.04R
JANESVILLE     SUNNY     46  36  66 N7        30.02R
$$

WIZ051-052-058>065-066-070>072-051500-
SOUTHEAST WISCONSIN

CITY           SKY/WX    TMP DP  RH WIND       PRES   REMARKS
MILWAUKEE      MOSUNNY   45  35  68 N13       30.02R
WAUKESHA       SUNNY     46  36  66 NW6       30.03R
MILWAUKEE/TIMM SUNNY     46  34  61 N9        30.03R
RACINE         CLOUDY    44  35  70 N18       30.03R
BURLINGTON     SUNNY     44  35  71 N9        30.02R
KENOSHA        CLOUDY    46  36  68 N13       30.01R
FOND DU LAC    SUNNY     46  37  71 N10       30.04R
SHEBOYGAN      SUNNY     47  37  68 N8        30.03R
WEST BEND      SUNNY     46  34  61 N3        30.03R
JUNEAU         SUNNY     44  36  71 N10       30.05R
$$

LSZ147-162-051500-
LAKE SUPERIOR

STATION/POSITION TIME  TEMP    WIND        PRES    WAVE
                       AIR SEA DIR/SP/G            HT/PER
                 (UTC) (F)     (DEG/KT/KT) (MB)    (FT/S)
W MID LAKE BUOY  1350   38 37  200/  8/  8 1017.5R   1
DEVILS ISLAND    1400   40     200/  6/  8 1016.8F
PORT WING        1220   37     220/  6/  7 1016.9S
SAXON HARBOR     1340   50     200/  4/  6 1016.9R
$$

LMZ867-665-643>646-051500-
LAKE MICHIGAN

STATION/POSITION TIME  TEMP    WIND        PRES    WAVE
                       AIR SEA DIR/SP/G            HT/PER
                 (UTC) (F)     (DEG/KT/KT) (MB)    (FT/S)
CHAMBERS ISLAND  1300   41     340/  7/ 10 1017.3R
N MID LAKE BUOY  1350   38 39  320/  8/  8 1016.7R   1/ 4
NORTHPORT PIER   1300   38     320/  9/ 12 1016.9R
ALGOMA LAKESHORE 1315          340/ 12/ 14   N/A
KEWAUNEE LAKESHO 1400   46      30/  7/  8 1016.2R
SHEBOYGAN LAKESH 1400   43      10/ 14/ 15 1017.7R
PORT WASHINGTON  1340   47      30/  8/ 12 1017.6R
S MID LAKE BUOY  1350   40 40   20/ 16/ 17 1015.0R   5/ 6
KENOSHA   LAKESH 1400   43     360/ 17/ 19 1016.3R
$$

TC  - TEMPERATURE IN CELSIUS
VSB - VISIBILITY IN STATUTE MILES
WCI - WIND CHILL INDEX
HX  - HEAT INDEX





USA.gov is the U.S. government's official web portal to all federal, state and local government web resources and services.